www.pogodaiklimat.ru

Погода и климат >> Архив погоды >> Великобритания >> Аэропорт Хитроу


АРХИВ ПОГОДЫ в Аэропорту Хитроу

Время (UTC), дата Ветер
(напр.,м/с)
 
Видим.   Явления Облачность Т
(С)
Тd
(С)
f
(%)
Тe
(С)
Тes
(С)
Комфортность P
(гПа)
Po
(гПа)
Тmin
(С)
Tmax
(С)
R
(мм)
R24
(мм)
S
(см)
10 12.01 З 6 35 км н/о +8.7 +6.3 85 +5 +5 тепло 1023.8 1020.7
11 12.01 З 6 30 км н/о +9.3 +6.9 85 +6 +6 тепло 1023.2 1020.1
12 12.01 З 6 30 км н/о +9.5 +7.2 86 +6 +6 по сезону 1022.5 1019.4
13 12.01 З 5 40 км н/о +10.2 +6.9 80 +7 +7 тепло 1021.9 1018.8
14 12.01 З 7 45 км н/о +10.3 +6.1 75 +7 +7 тепло 1021.1 1018.0
15 12.01 З 7 35 км н/о +10.2 +5.4 72 +7 +7 тепло 1020.9 1017.9
16 12.01 З 6 35 км слаб. ливневой дождь н/о +9.9 +5.2 73 +7 +7 тепло 1020.9 1017.8
17 12.01 З 5 45 км слаб. морось с дождем н/о +9.5 +5.1 74 +6 +6 тепло 1020.5 1017.5
18 12.01 З 6 40 км в посл. час дождь н/о +9.2 +4.8 74 +6 +6 по сезону 1020.2 1017.1 +10.4 0.0
19 12.01 З 6 50 км в посл. час дождь н/о +9.1 +5.0 75 +6 +6 тепло 1019.9 1016.8
20 12.01 З 6 30 км слаб. дождь н/о +9.2 +5.9 80 +5 +5 тепло 1019.6 1016.5
21 12.01 З 6 30 км слаб. дождь н/о +9.1 +6.1 81 +5 +5 по сезону 1019.3 1016.3
22 12.01 З 6 30 км слаб. дождь н/о +9.2 +5.9 80 +5 +5 тепло 1019.6 1016.5
23 12.01 З 6
{14}
35 км н/о +10.2 +6.6 78 +7 +7 тепло 1018.7 1015.7
00 13.01 З 5 30 км н/о +10.4 +6.7 78 +7 +7 тепло 1018.5 1015.4 0.0
01 13.01 З 6 40 км н/о +10.6 +6.7 77 +8 +8 тепло 1018.4 1015.3
02 13.01 З 6 40 км н/о +10.8 +7.1 78 +8 +8 тепло 1017.7 1014.6
03 13.01 З 6
{13}
50 км н/о +10.8 +7.3 79 +8 +8 тепло 1017.2 1014.1
04 13.01 З 5 45 км н/о +10.0 +7.3 83 +7 +7 тепло 1017.0 1013.9
05 13.01 З 6 40 км н/о +9.7 +7.3 85 +6 +6 тепло 1016.2 1013.1
06 13.01 З 7 22 км н/о +9.7 +7.6 87 +6 +6 тепло 1015.4 1012.3 +8.9 0.0
07 13.01 З 6 25 км н/о +9.8 +7.6 86 +6 +6 тепло 1015.2 1012.1
08 13.01 З 7 35 км н/о +10.1 +7.1 82 +6 +6 тепло 1015.2 1012.1
09 13.01 З 6 25 км н/о +9.7 +6.6 81 +6 +6 по сезону 1015.0 1012.0
10 13.01 З 7 30 км н/о +9.7 +6.3 79 +6 +6 тепло 1014.3 1011.2
11 13.01 З 9
{13}
35 км н/о +10.4 +5.9 74 +6 +6 тепло 1014.0 1011.0
12 13.01 З 9
{13}
30 км н/о +10.9 +6.6 75 +7 +7 по сезону 1013.3 1010.2
13 13.01 З 8
{15}
35 км н/о +11.6 +7.5 76 +8 +8 тепло 1012.9 1009.8
14 13.01 З 9
{14}
27 км н/о +11.2 +7.6 78 +8 +8 тепло 1012.4 1009.3
15 13.01 З 8
{13}
28 км н/о +10.8 +7.6 81 +7 +7 тепло 1011.7 1008.7
16 13.01 З 8
{13}
30 км н/о +10.7 +7.7 82 +7 +7 тепло 1011.8 1008.7
17 13.01 З 8
{13}
50 км н/о +10.5 +7.5 82 +7 +7 тепло 1011.4 1008.4
18 13.01 З 6 45 км н/о +10.5 +7.1 79 +7 +7 тепло 1011.5 1008.4 +11.6
19 13.01 З 6 50 км н/о +11.4 +6.1 70 +9 +9 тепло 1011.7 1008.7
20 13.01 СЗ 8-14
{14}
40 км н/о +11.4 +4.1 61 +8 +8 тепло 1012.5 1009.5
21 13.01 СЗ 6-11
{14}
24 км н/о +10.4 +2.8 59 +7 +7 тепло 1013.6 1010.5
22 13.01 СЗ 4 30 км н/о +9.8 +2.0 58 +8 +8 тепло 1014.1 1011.0
23 13.01 СЗ 4 19 км в посл. час дождь н/о +9.5 +3.5 66 +7 +7 тепло 1015.0 1011.9
00 14.01 СЗ 6
{13}
28 км н/о +9.4 +1.5 58 +6 +6 тепло 1014.9 1011.9 0.0
01 14.01 СЗ 7 21 км н/о +8.9 +2.0 62 +5 +5 тепло 1015.4 1012.3
02 14.01 СЗ 6 22 км н/о +8.1 +2.3 67 +4 +4 тепло 1015.8 1012.8
03 14.01 СЗ 6 25 км н/о +8.0 +1.9 65 +4 +4 по сезону 1016.3 1013.2
04 14.01 З 4 20 км н/о +8.1 +2.0 65 +5 +5 тепло 1017.3 1014.2
05 14.01 СЗ 6 21 км н/о +8.2 +2.2 66 +5 +5 тепло 1017.5 1014.4
06 14.01 СЗ 6 20 км н/о +7.9 +2.0 66 +4 +4 по сезону 1018.2 1015.1 +7.8 0.0
07 14.01 СЗ 5 23 км н/о +7.7 +2.5 70 +4 +4 тепло 1018.6 1015.5
08 14.01 З 4 19 км н/о +7.5 +2.9 73 +4 +4 тепло 1019.5 1016.4
09 14.01 З 3 26 км н/о +7.7 +3.1 73 +5 +5 по сезону 1020.6 1017.5
10 14.01 СЗ 5 21 км н/о +8.5 +3.4 70 +5 +5 тепло 1020.9 1017.8
11 14.01 СЗ 6 18 км н/о +8.8 +3.4 69 +5 +5 тепло 1021.4 1018.3
12 14.01 СЗ 5 23 км н/о +8.8 +3.5 69 +5 +5 по сезону 1021.7 1018.6
13 14.01 СЗ 5 24 км н/о +8.9 +3.0 66 +6 +6 тепло 1021.7 1018.7
14 14.01 СЗ 5 24 км н/о +8.9 +3.0 66 +6 +6 тепло 1021.7 1018.7
15 14.01 СЗ 4 18 км н/о +9.1 +3.1 66 +6 +6 по сезону 1022.0 1018.9
16 14.01 СЗ 4 20 км н/о +8.7 +3.0 67 +6 +6 тепло 1022.7 1019.6
17 14.01 СЗ 3 21 км н/о +8.3 +3.1 70 +6 +6 тепло 1023.0 1019.9
18 14.01 З 3 18 км н/о +7.7 +3.1 73 +5 +5 по сезону 1023.1 1020.0 +9.8
19 14.01 З 3 16 км н/о +7.7 +2.8 71 +5 +5 тепло 1023.0 1019.9
20 14.01 З 4 23 км н/о +7.4 +1.9 68 +4 +4 тепло 1023.3 1020.2
21 14.01 З 3 23 км н/о +6.3 +1.0 69 +4 +4 по сезону 1023.2 1020.1
22 14.01 З 4 20 км н/о +4.6 +0.6 75 0 0 тепло 1023.2 1020.1
23 14.01 З 3 25 км н/о +4.1 +0.9 80 0 0 по сезону 1023.3 1020.1
00 15.01 З 4 22 км н/о +4.0 +1.2 82 -0 -0 по сезону 1023.1 1019.9
01 15.01 З 4 26 км н/о +4.1 +1.4 83 0 0 тепло 1023.0 1019.8
02 15.01 З 3 22 км н/о +2.8 +0.9 87 -1 -1 по сезону 1022.8 1019.6
03 15.01 З 4 22 км н/о +4.0 +1.2 82 -0 -0 по сезону 1023.1 1019.9
04 15.01 ЮЗ 3 21 км н/о +2.0 +0.5 90 -2 -2 тепло 1022.2 1019.0
05 15.01 ЮЗ 2 22 км н/о +3.4 +1.2 85 0 0 по сезону 1021.5 1018.4
06 15.01 З 4 16 км н/о +1.9 +0.8 92 -3 -3 прохладно 1022.7 1019.5
07 15.01 ЮЗ 2 25 км н/о +5.2 +3.0 86 +3 +3 тепло 1021.4 1018.3
08 15.01 ЮЗ 4 25 км н/о +5.4 +3.0 85 +2 +2 по сезону 1021.2 1018.1
09 15.01 ЮЗ 5 24 км н/о +6.3 +3.7 83 +2 +2 по сезону 1021.1 1018.0
10 15.01 ЮЗ 6 40 км н/о +7.1 +4.2 82 +3 +3 тепло 1020.8 1017.7
11 15.01 ЮЗ 5 40 км н/о +8.1 +5.4 83 +4 +4 по сезону 1020.5 1017.4
12 15.01 З 7 40 км н/о +9.1 +5.9 80 +5 +5 по сезону 1019.8 1016.7
13 15.01 З 7 35 км н/о +9.4 +6.2 80 +5 +5 тепло 1019.0 1015.9
14 15.01 З 7 45 км н/о +9.4 +6.1 80 +6 +6 тепло 1018.3 1015.3
15 15.01 З 6 50 км н/о +9.3 +6.3 82 +6 +6 по сезону 1018.1 1015.0
16 15.01 ЮЗ 5 30 км н/о +8.9 +6.6 85 +6 +6 тепло 1017.7 1014.6
17 15.01 ЮЗ 4 50 км н/о +9.2 +5.9 80 +6 +6 тепло 1017.0 1013.9
18 15.01 ЮЗ 5 50 км н/о +9.1 +5.4 78 +6 +6 по сезону 1016.6 1013.6 +9.7
19 15.01 ЮЗ 7 50 км н/о +9.3 +5.2 76 +5 +5 тепло 1016.3 1013.2
20 15.01 ЮЗ 6 50 км н/о +9.3 +4.9 74 +6 +6 тепло 1015.8 1012.8
21 15.01 ЮЗ 6 45 км н/о +8.8 +4.8 76 +5 +5 по сезону 1015.4 1012.3
22 15.01 ЮЗ 6 45 км н/о +8.6 +5.0 78 +5 +5 тепло 1015.0 1011.9
23 15.01 ЮЗ 7 45 км н/о +8.3 +5.5 83 +4 +4 тепло 1014.3 1011.2
00 16.01 ЮЗ 6 40 км н/о +7.8 +6.0 88 +4 +4 по сезону 1013.5 1010.4
01 16.01 ЮЗ 6 45 км н/о +8.5 +6.2 85 +5 +5 тепло 1012.4 1009.4
02 16.01 ЮЗ 6 50 км н/о +8.4 +6.3 87 +4 +4 тепло 1011.7 1008.6
03 16.01 ЮЗ 7 45 км н/о +8.3 +6.8 90 +4 +4 по сезону 1010.9 1007.8
04 16.01 ЮЗ 7 30 км н/о +8.6 +6.7 88 +4 +4 тепло 1009.9 1006.9
05 16.01 ЮЗ 6 12 км н/о +8.4 +7.1 92 +4 +4 тепло 1009.1 1006.0
06 16.01 ЮЗ 7 3400 м в посл. час морось н/о +8.1 +7.4 95 +4 +4 по сезону 1008.3 1005.2 +7.7 0.0
07 16.01 ЮЗ 6 6000 м в посл. час дождь н/о +8.2 +7.5 95 +4 +4 тепло 1007.6 1004.5
08 16.01 ЮЗ 6 16 км в посл. час морось н/о +8.4 +7.6 95 +4 +4 тепло 1006.8 1003.8
09 16.01 Ю 7 26 км в посл. час дождь н/о +8.8 +7.7 93 +5 +5 по сезону 1006.4 1003.4
10 16.01 ЮЗ 7 5000 м в посл. час дождь н/о +8.8 +7.9 94 +4 +4 тепло 1005.9 1002.9
11 16.01 ЮЗ 7 16 км н/о +9.1 +7.8 92 +5 +5 тепло 1005.1 1002.1
12 16.01 ЮЗ 8
{13}
7000 м дым н/о +9.2 +7.8 91 +5 +5 по сезону 1003.9 1000.8 0.4
13 16.01 ЮЗ 7 4000 м морось с дождем н/о +9.3 +8.4 94 +5 +5 тепло 1003.0 1000.0
14 16.01 ЮЗ 5 4100 м дождь н/о +8.9 +8.3 96 +5 +5 тепло 1001.9 998.9
15 16.01 ЮЗ 6 45 км в посл. час дождь н/о +9.7 +8.2 90 +6 +6 по сезону 1001.3 998.3
16 16.01 СЗ 5 8000 м ливневой дождь н/о +6.4 +5.2 92 +2 +2 тепло 1002.5 999.4
17 16.01 З 4 5000 м дождь н/о +6.0 +5.1 94 +2 +2 по сезону 1002.9 999.9
18 16.01 З 2 40 км в посл. час дождь н/о +5.7 +4.7 93 +3 +3 по сезону 1003.0 999.9 +9.9 5
19 16.01 З 4 50 км н/о +5.0 +3.9 93 +1 +1 тепло 1003.2 1000.1
20 16.01 ЮЗ 5 35 км н/о +5.0 +3.8 92 0 0 по сезону 1003.3 1000.2
21 16.01 ЮЗ 5 27 км н/о +4.4 +3.4 93 -0 -0 по сезону 1003.3 1000.3
22 16.01 ЮЗ 4 12 км н/о +4.2 +3.3 94 -0 -0 тепло 1003.3 1000.3
23 16.01 ЮЗ 3 10 км н/о +3.7 +3.0 95 -0 -0 по сезону 1003.3 1000.2
00 17.01 Ю 2 6000 м дымка н/о +3.5 +2.9 96 0 0 по сезону 1003.0 999.9
01 17.01 Ю 2 7000 м слаб. ливневой дождь н/о +4.1 +3.7 97 +1 +1 тепло 1002.6 999.6
02 17.01 ЮЗ 2 7000 м в посл. час дождь н/о +3.8 +3.3 97 +1 +1 по сезону 1002.7 999.6
03 17.01 З 3 14 км в посл. час дождь н/о +4.4 +3.7 95 +1 +1 по сезону 1003.1 1000.0
04 17.01 СЗ 4 11 км слаб. морось н/о +4.4 +3.5 94 -0 -0 тепло 1003.9 1000.8
05 17.01 СЗ 5 22 км в посл. час дождь н/о +4.0 +2.7 91 -1 -1 по сезону 1004.5 1001.4
06 17.01 СЗ 5 28 км н/о +3.6 +2.3 91 -1 -1 по сезону 1005.7 1002.6 +3.4 0.2
07 17.01 З 4 30 км н/о +2.9 +1.5 90 -2 -2 по сезону 1006.6 1003.5
08 17.01 СЗ 5 16 км слаб. ливневой дождь н/о +3.7 +2.1 89 -2 -2 по сезону 1007.9 1004.8
09 17.01 СЗ 4 35 км в посл. час дождь н/о +2.1 -0.2 85 -3 -3 холодно 1010.0 1006.8
10 17.01 СЗ 4 35 км н/о +2.3 -1.3 77 -3 -3 по сезону 1011.4 1008.3
11 17.01 СЗ 5 35 км н/о +3.2 -1.9 69 -2 -2 по сезону 1012.3 1009.2
12 17.01 СЗ 5 25 км н/о +3.7 -2.6 63 -1 -1 прохладно 1013.1 1010.0 0.2
13 17.01 СЗ 5 35 км н/о +4.5 -3.2 57 0 0 по сезону 1013.5 1010.4
14 17.01 СЗ 5 35 км н/о +5.0 -3.8 53 +1 +1 по сезону 1013.9 1010.8
15 17.01 СЗ 5 35 км н/о +5.0 -3.7 53 +1 +1 по сезону 1014.7 1011.6
16 17.01 СЗ 4 40 км н/о +4.3 -3.8 56 0 0 тепло 1015.8 1012.7
17 17.01 СЗ 3 30 км н/о +3.5 -3.6 60 0 0 по сезону 1016.6 1013.5
18 17.01 З 3 35 км н/о +3.0 -3.6 62 -1 -1 прохладно 1017.4 1014.2 +5.1 0.2
19 17.01 С 2 30 км н/о +2.4 -3.4 66 -0 -0 тепло 1017.8 1014.6
20 17.01 З 4 30 км н/о +0.9 -3.5 72 -4 -4 по сезону 1018.6 1015.5
21 17.01 З 3 35 км н/о +3.0 -3.6 62 -1 -1 прохладно 1017.4 1014.2 +5.1 0.2
22 17.01 СЗ 2 24 км н/о +1.2 -3.3 72 -1 -1 тепло 1018.9 1015.8
23 17.01 З 1 24 км н/о +0.3 -3.0 78 -2 -2 по сезону 1019.2 1016.0
00 18.01 З 2 25 км н/о +0.5 -2.8 79 -3 -3 прохладно 1019.4 1016.2
01 18.01 Ю 1 23 км н/о -0.9 -3.6 82 -1 -1 тепло 1019.5 1016.3
02 18.01 ЮЗ 1 19 км н/о -1.1 -2.7 89 -2 -2 по сезону 1019.5 1016.3
03 18.01 ЮВ 1 20 км н/о -0.9 -2.6 88 -3 -3 прохладно 1019.3 1016.1
04 18.01 ЮВ 2 14 км н/о -1.2 -2.5 91 -4 -4 по сезону 1019.0 1015.8
05 18.01 ЮВ 2 15 км н/о -0.9 -2.4 90 -4 -4 по сезону 1018.6 1015.4
06 18.01 Ю 2 16 км н/о -0.8 -2.7 87 -4 -4 прохладно 1018.2 1015.0 -1.4
07 18.01 Ю 2 19 км н/о -0.1 -2.5 84 -3 -3 по сезону 1018.1 1014.9
08 18.01 Ю 2 17 км н/о +0.5 -2.9 78 -3 -3 по сезону 1018.0 1014.8
09 18.01 ЮВ 3 22 км н/о +0.6 -2.7 79 -4 -4 холодно 1017.9 1014.7
10 18.01 ЮВ 3 22 км н/о +2.2 -1.8 75 -2 -2 по сезону 1017.7 1014.6
11 18.01 ЮВ 4 19 км н/о +3.6 -0.8 73 -0 -0 по сезону 1017.4 1014.3
12 18.01 Ю 4 30 км н/о +5.5 -0.1 67 +2 +2 по сезону 1016.7 1013.6
13 18.01 Ю 5 20 км н/о +6.4 +0.6 66 +3 +3 тепло 1015.7 1012.6
14 18.01 Ю 6 35 км н/о +6.6 -1.2 57 +2 +2 по сезону 1015.2 1012.1
15 18.01 Ю 6 35 км н/о +7.0 -0.7 58 +3 +3 по сезону 1014.8 1011.7
16 18.01 Ю 5 29 км н/о +5.8 -1.0 62 +2 +2 тепло 1014.6 1011.5
17 18.01 ЮВ 6 35 км н/о +4.9 -0.7 67 0 0 по сезону 1014.0 1010.9
18 18.01 ЮВ 7 30 км н/о +4.5 -0.5 70 -1 -1 прохладно 1013.5 1010.4 +7.1
19 18.01 ЮВ 5 21 км н/о +4.0 -1.0 70 -1 -1 тепло 1013.5 1010.4
20 18.01 ЮВ 5 26 км н/о +2.9 -1.2 74 -2 -2 по сезону 1013.2 1010.0
21 18.01 ЮВ 4 24 км н/о +2.7 -0.9 77 -2 -2 прохладно 1013.2 1010.1
22 18.01 ЮВ 5 22 км н/о +2.7 -0.9 77 -2 -2 тепло 1012.8 1009.7
23 18.01 ЮВ 5 23 км н/о +2.2 -0.8 81 -3 -3 по сезону 1012.4 1009.3
00 19.01 ЮВ 4 28 км н/о +2.4 -0.9 79 -2 -2 прохладно 1012.4 1009.2
01 19.01 ЮВ 4 24 км н/о +2.1 -1.0 80 -2 -2 тепло 1011.7 1008.6
02 19.01 ЮВ 5 26 км н/о +2.3 -0.8 80 -3 -3 по сезону 1011.3 1008.2
03 19.01 ЮВ 5 25 км в посл. час осадки н/о +3.3 -0.2 78 -2 -2 прохладно 1010.9 1007.8
04 19.01 ЮВ 5 18 км слаб. ливневой дождь н/о +3.3 +0.3 81 -2 -2 тепло 1010.4 1007.3
05 19.01 ЮВ 5 23 км в посл. час дождь н/о +3.5 +0.2 79 -2 -2 по сезону 1009.8 1006.7
06 19.01 ЮВ 6 18 км в посл. час дождь н/о +3.5 +0.5 81 -2 -2 прохладно 1009.5 1006.3 +1.8 0.0
07 19.01 ЮВ 5 21 км н/о +3.5 +0.9 83 -2 -2 тепло 1009.3 1006.2
08 19.01 ЮВ 5 13 км н/о +3.5 +1.2 85 -1 -1 по сезону 1009.4 1006.3

 

Местоположение метеостанции Аэропорт Хитроу (Великобритания): широта 51.48 долгота -0.45 высота над уровнем моря 25 м.

В архиве по умолчанию представлена погода в Аэропорту Хитроу за последнюю неделю. Архивные данные за месяц целиком и за предыдущие месяцы, начиная с января 2011 года, Вы можете получить, выбрав интересующий диапазон дат из раскрывающегося списка и нажав кнопку "Ввод!".


*Определитесь, кто Вы:
робот инопланетянин человек

Внимание! Время в таблицах - всемирное. Для получения местного времени необходимо прибавить поправку, которая равна 0 ч.

Смотрите также архив погоды в соседних городах и на ближайших метеорологических станциях:

Погода в Норхолте (Великобритания) (8 км)
Погода в Лондоне (Великобритания) (23 км)
Погода в Чарлвуде (Великобритания) (28 км)
Погода в Фарнборо (Великобритания) (31 км)
Погода на Аэродроме Кенли (Великобритания) (33 км)
Погода в Хай-Уикоме (Великобритания) (33 км)
Погода в Одихеме (Великобритания) (44 км)
Погода в Бенсоне (Великобритания) (46 км)
Погода в Грейвзенде (Великобритания) (52 км)
Погода в Ротамстеде (Великобритания) (66 км)

Пояснения к столбцам:

Ветер - указаны скорость ветра в м/с - средняя за 10 мин, порывы в срок и между сроками (в фигурных скобках) и направление, откуда дует ветер: С - северный, СВ - северо-восточный, В - восточный, ЮВ - юго-восточный, Ю - южный, ЮЗ - юго-западный, З - западный, СЗ - северо-западный.
Видимость - горизонтальная дальность видимости в метрах или километрах. При видимости от 1 до 10 км при отсутствии осадков обычно наблюдается дымка, при ухудшении видимости до 1 км и менее - туман. В сухую погоду видимость может ухудшаться дымом, пылью или мглою.
Явления - указаны атмосферные явления, наблюдавшиеся в срок или в последний час перед сроком; фигурными скобками обозначены явления, наблюдавшиеся между сроками (за 1-3 часа до срока); квадратными скобками обозначены град или гололедные отложения с указанием их диаметра в мм.
Облачность - указаны через наклонную черту общая и нижняя облачность в баллах и высота нижней границы облаков в метрах; квадратными скобками обозначены формы облаков: Ci - перистые, Cs - перисто-слоистые, Cc - перисто-кучевые, Ac - высококучевые, As - высокослоистые, Sc - слоисто-кучевые, Ns - слоисто-дождевые, Cu - кучевые, Cb - кучево-дождевые. Подробнее классификацию облаков см. в Атласе облаков (PDF).
T - Температура воздуха - температура, измеренная на высоте 2 м над землей.
Td - Температура точки росы - температура, при понижении до которой содержащийся в воздухе водяной пар достигнет насыщения.
f - Относительная влажность воздуха - влажноcть воздуха, измеренная на высоте 2 м над землей.
Te - Эффективная температура - температура, которую ощущает одетый по сезону человек в тени. Характеристика душности погоды. При расчете учитывается влияние влажности воздуха и скорости ветра на теплоощущения человека.
Tes - Эффективная температура на солнце - температура, которую ощущает человек, с поправкой на солнечный нагрев. Характеристика знойности погоды. Зависит от высоты солнца над горизонтом, облачности и скорости ветра. Ночью, в пасмурную погоду, а также при ветре 12 м/с и более поправка равна нулю.
P - Атмосферное давление - приведенное к уровню моря атмосферное давление.
Po - Атмосферное давление - измеренное на уровне метеостанции атмосферное давление.
Tmin - Минимальная температура - минимум температуры воздуха на высоте 2 м над землей.
Tmax - Максимальная температура - максимум температуры воздуха на высоте 2 м над землей.
R - Количество осадков - Количество выпавших осадков за период времени, мм. При наведении курсора мыши на число - период времени, за который выпало указанное количество осадков.
R24 - Количество осадков - Количество выпавших осадков за 24 часа, мм.
S - Снежный покров - Высота снежного покрова, см. При наведении курсора мыши на число - состояние снежного покрова и степень покрытия местности в баллах.